Tracking 30685 objects as of 17-Jun-2025
HD Live streaming from Space Station
objects crossing your sky now

GALILEO 27 (223)

Track GALILEO 27 (223) now!
GALILEO 27 (223) is classified as:


NORAD ID: 49809
Int'l Code: 2021-117A
Perigee: 23,224.6 km
Apogee: 23,233.6 km
Inclination: 57.3 °
Period: 844.7 minutes
Semi major axis: 29600 km
RCS: Unknown
Launch date: December 5, 2021
Source: France (FR)
Launch site: FRENCH GUIANA (FRGUI)
Your satellite tracking list
Your tracking list is empty




NASA's NSSDC Master Catalog

Two Line Element Set (TLE):
1 49809U 21116A   25167.55481119 -.00000066  00000-0  00000-0 0  9999
2 49809  57.2624 351.5471 0001526 172.7064 190.4490  1.70475829 21952
Source of the keplerian elements: AFSPC